| time (UTC) | temp F | wind direction | speed knots | gust knots | rain 1hr in | rain 24hr in | rain mn in | humidity % | barometer mb |
| 20260505083113 | 56 | 0 | 0.0 | 0.0 | 0.00 | 0.00 | 0.00 | 77 | 1009.3 |
| 20260505081558 | 56 | 0 | 0.0 | 0.0 | 0.00 | 0.00 | 0.00 | 77 | 1009.4 |
| 20260505080100 | 56 | 0 | 0.0 | 0.9 | 0.00 | 0.00 | 0.00 | 75 | 1009.4 |
| 20260505074546 | 57 | 0 | 0.0 | 3.5 | 0.00 | 0.00 | 0.00 | 74 | 1009.4 |
| 20260505073053 | 57 | 0 | 0.0 | 3.5 | 0.00 | 0.00 | 0.00 | 74 | 1009.3 |
| 20260505071603 | 57 | 0 | 0.0 | 0.9 | 0.00 | 0.00 | 0.00 | 74 | 1009.3 |
| 20260505070054 | 57 | 0 | 0.0 | 0.9 | 0.00 | 0.00 | 0.00 | 73 | 1009.3 |
| 20260505064546 | 57 | 0 | 0.0 | 0.0 | 0.00 | 0.00 | 0.00 | 72 | 1009.4 |
| 20260505063051 | 58 | 0 | 0.0 | 0.9 | 0.00 | 0.00 | 0.00 | 71 | 1009.4 |
| 20260505061552 | 58 | 0 | 0.0 | 0.9 | 0.00 | 0.00 | 0.00 | 70 | 1009.6 |
| 20260505060100 | 59 | 0 | 0.0 | 0.9 | 0.00 | 0.00 | 0.00 | 69 | 1009.6 |
| 20260505054544 | 59 | 0 | 0.0 | 4.3 | 0.00 | 0.00 | 0.00 | 68 | 1009.6 |
| 20260505053049 | 59 | 161 | 0.0 | 1.7 | 0.00 | 0.00 | 0.00 | 67 | 1009.7 |
| 20260505051549 | 60 | 159 | 0.0 | 4.3 | 0.00 | 0.00 | 0.00 | 66 | 1009.9 |
| 20260505041554 | 61 | 0 | 0.0 | 2.6 | 0.00 | 0.00 | 0.00 | 62 | 1010.0 |
| 20260505040056 | 61 | 0 | 0.0 | 3.5 | 0.00 | 0.00 | 0.00 | 61 | 1010.0 |
| 20260505034547 | 61 | 0 | 0.0 | 2.6 | 0.00 | 0.00 | 0.00 | 61 | 1010.0 |
| 20260505033045 | 61 | 0 | 0.0 | 6.1 | 0.00 | 0.00 | 0.00 | 60 | 1010.0 |
| 20260505031551 | 62 | 0 | 0.0 | 5.2 | 0.00 | 0.00 | 0.00 | 60 | 1010.1 |
| 20260505030108 | 61 | 0 | 0.0 | 2.6 | 0.00 | 0.00 | 0.00 | 61 | 1010.0 |
| 20260505024550 | 61 | 0 | 0.0 | 2.6 | 0.00 | 0.00 | 0.00 | 62 | 1010.0 |
| 20260505023051 | 61 | 0 | 0.0 | 2.6 | 0.00 | 0.00 | 0.00 | 62 | 1010.0 |
| 20260505021551 | 61 | 0 | 0.0 | 6.1 | 0.00 | 0.00 | 0.00 | 63 | 1010.2 |
| 20260505020050 | 60 | 0 | 0.0 | 1.7 | 0.00 | 0.00 | 0.00 | 65 | 1010.1 |
| 20260505014603 | 59 | 176 | 0.0 | 0.9 | 0.00 | 0.00 | 0.00 | 67 | 1010.0 |
| 20260505013053 | 60 | 0 | 0.0 | 0.0 | 0.00 | 0.00 | 0.00 | 67 | 1010.0 |
| 20260505011557 | 60 | 0 | 0.0 | 0.0 | 0.00 | 0.00 | 0.00 | 66 | 1009.7 |
| 20260505010055 | 61 | 0 | 0.0 | 0.9 | 0.00 | 0.00 | 0.00 | 65 | 1009.6 |
| 20260505004551 | 61 | 0 | 0.0 | 0.0 | 0.00 | 0.00 | 0.00 | 64 | 1009.4 |
| 20260505003057 | 62 | 0 | 0.0 | 0.0 | 0.00 | 0.00 | 0.00 | 63 | 1009.1 |
| 20260505001546 | 63 | 0 | 0.0 | 0.9 | 0.00 | 0.00 | 0.00 | 61 | 1008.8 |
| 20260505000051 | 65 | 0 | 0.0 | 1.7 | 0.00 | 0.00 | 0.00 | 57 | 1008.7 |
| 20260504234547 | 69 | 0 | 0.0 | 8.7 | 0.00 | 0.00 | 0.00 | 50 | 1008.5 |
| 20260504233050 | 70 | 172 | 0.0 | 12.2 | 0.00 | 0.00 | 0.00 | 42 | 1008.1 |
| 20260504231549 | 70 | 211 | 1.7 | 8.7 | 0.00 | 0.00 | 0.00 | 40 | 1007.9 |
| 20260504230042 | 71 | 236 | 2.6 | 10.4 | 0.00 | 0.00 | 0.00 | 39 | 1007.7 |
| 20260504224547 | 72 | 232 | 0.9 | 9.6 | 0.00 | 0.00 | 0.00 | 39 | 1007.7 |
| 20260504223100 | 72 | 234 | 1.7 | 12.2 | 0.00 | 0.00 | 0.00 | 38 | 1007.8 |
| 20260504221548 | 72 | 241 | 4.3 | 12.2 | 0.00 | 0.00 | 0.00 | 37 | 1007.7 |
| 20260504220051 | 72 | 0 | 2.6 | 13.0 | 0.00 | 0.00 | 0.00 | 37 | 1008.0 |
| 20260504214548 | 72 | 254 | 3.5 | 12.2 | 0.00 | 0.00 | 0.00 | 38 | 1008.0 |
| 20260504213047 | 73 | 0 | 3.5 | 10.4 | 0.00 | 0.00 | 0.00 | 36 | 1008.2 |
| 20260504211633 | 72 | 220 | 1.7 | 13.0 | 0.00 | 0.00 | 0.00 | 38 | 1008.2 |
| 20260504210054 | 73 | 237 | 4.3 | 12.2 | 0.00 | 0.00 | 0.00 | 37 | 1008.4 |
| 20260504204550 | 71 | 274 | 3.5 | 17.4 | 0.00 | 0.00 | 0.00 | 36 | 1008.2 |
| 20260504203057 | 72 | 220 | 3.5 | 16.5 | 0.00 | 0.00 | 0.00 | 37 | 1008.2 |
| 20260504201557 | 72 | 200 | 5.2 | 17.4 | 0.00 | 0.00 | 0.00 | 36 | 1008.4 |
| 20260504200047 | 72 | 274 | 6.1 | 13.9 | 0.00 | 0.00 | 0.00 | 37 | 1008.7 |
| 20260504194551 | 72 | 275 | 4.3 | 13.0 | 0.00 | 0.00 | 0.00 | 37 | 1008.8 |
| 20260504193044 | 72 | 263 | 5.2 | 9.6 | 0.00 | 0.00 | 0.00 | 39 | 1009.0 |
| 20260504191606 | 72 | 279 | 5.2 | 10.4 | 0.00 | 0.00 | 0.00 | 38 | 1009.1 |
| 20260504190104 | 71 | 271 | 7.0 | 13.9 | 0.00 | 0.00 | 0.00 | 37 | 1009.2 |
| 20260504184552 | 71 | 282 | 4.3 | 12.2 | 0.00 | 0.00 | 0.00 | 39 | 1009.4 |
| 20260504183045 | 70 | 259 | 2.6 | 12.2 | 0.00 | 0.00 | 0.00 | 40 | 1009.6 |
| 20260504181558 | 70 | 0 | 0.9 | 9.6 | 0.00 | 0.00 | 0.00 | 40 | 1009.6 |
| 20260504180052 | 69 | 273 | 7.0 | 13.0 | 0.00 | 0.00 | 0.00 | 38 | 1009.9 |
| 20260504174553 | 69 | 265 | 3.5 | 14.8 | 0.00 | 0.00 | 0.00 | 39 | 1010.0 |
| 20260504173055 | 69 | 148 | 3.5 | 10.4 | 0.00 | 0.00 | 0.00 | 39 | 1010.2 |
| 20260504171551 | 68 | 257 | 5.2 | 12.2 | 0.00 | 0.00 | 0.00 | 40 | 1010.3 |